timestamp,wind_dir_avg,wind_spd_avg,wind_spd_max_dir,wind_spd_gust,battery_voltage,lat,long
2020-12-26 00:04:01+00:00,220.0,7.23,225.0,8.09,12.57,47.59359,-54.27349
2020-12-26 00:14:01+00:00,230.0,7.48,230.0,8.57,12.57,47.59359,-54.27349
2020-12-26 00:24:01+00:00,232.0,7.54,230.0,8.7,12.57,47.59359,-54.27349
2020-12-26 00:34:01+00:00,238.0,5.54,240.0,6.21,12.57,47.59359,-54.27349
2020-12-26 00:44:01+00:00,238.0,6.42,240.0,7.08,12.57,47.59359,-54.27349
2020-12-26 00:54:01+00:00,234.0,6.11,231.0,7.57,12.57,47.59359,-54.27349
2020-12-26 01:04:01+00:00,239.0,5.84,241.0,6.65,12.57,47.59359,-54.27349
2020-12-26 01:14:01+00:00,229.0,5.86,233.0,7.1,12.57,47.59359,-54.27349
2020-12-26 01:24:01+00:00,234.0,6.78,232.0,7.62,12.57,47.59359,-54.27349
2020-12-26 01:34:01+00:00,239.0,6.95,235.0,7.64,12.57,47.59359,-54.27349
2020-12-26 01:44:01+00:00,233.0,6.43,230.0,7.83,12.57,47.59359,-54.27349
2020-12-26 01:54:01+00:00,231.0,6.94,225.0,8.37,12.57,47.59359,-54.27349
2020-12-26 02:04:01+00:00,234.0,7.3,236.0,8.49,12.57,47.59359,-54.27349
2020-12-26 02:14:01+00:00,236.0,6.48,243.0,7.83,12.57,47.59359,-54.27349
2020-12-26 02:24:01+00:00,239.0,6.56,239.0,8.22,12.57,47.59359,-54.27349
2020-12-26 02:34:01+00:00,244.0,5.31,243.0,6.03,12.57,47.59359,-54.27349
2020-12-26 02:44:01+00:00,240.0,5.29,242.0,6.05,12.57,47.59359,-54.27349
2020-12-26 02:54:01+00:00,239.0,4.99,240.0,5.59,12.57,47.59359,-54.27349
2020-12-26 03:04:01+00:00,244.0,5.94,243.0,6.8,12.57,47.59359,-54.27349
2020-12-26 03:14:01+00:00,232.0,6.2,233.0,8.95,12.57,47.59359,-54.27349
2020-12-26 03:24:01+00:00,232.0,7.12,229.0,8.71,12.57,47.59359,-54.27349
2020-12-26 03:34:01+00:00,242.0,7.47,237.0,8.69,12.57,47.59359,-54.27349
2020-12-26 03:44:01+00:00,246.0,8.01,242.0,8.74,12.57,47.59359,-54.27349
2020-12-26 03:54:01+00:00,249.0,8.34,248.0,8.96,12.57,47.59359,-54.27349
2020-12-26 04:04:01+00:00,243.0,7.88,230.0,9.51,12.57,47.59359,-54.27349
2020-12-26 04:14:01+00:00,237.0,6.88,239.0,7.86,12.57,47.59359,-54.27349
2020-12-26 04:24:01+00:00,240.0,6.77,241.0,7.35,12.57,47.59359,-54.27349
2020-12-26 04:34:01+00:00,244.0,6.81,243.0,7.5,12.57,47.59359,-54.27349
2020-12-26 04:44:01+00:00,239.0,5.81,236.0,6.86,12.57,47.59359,-54.27349
2020-12-26 04:54:01+00:00,235.0,5.65,240.0,6.48,12.57,47.59359,-54.27349
2020-12-26 05:04:01+00:00,238.0,5.98,235.0,6.49,12.57,47.59359,-54.27349
2020-12-26 05:14:01+00:00,233.0,5.94,229.0,7.08,12.49,47.59359,-54.27349
2020-12-26 05:24:01+00:00,234.0,6.02,230.0,7.22,12.49,47.59359,-54.27349
2020-12-26 05:34:01+00:00,237.0,7.46,242.0,8.22,12.49,47.59359,-54.27349
2020-12-26 05:44:01+00:00,229.0,7.15,230.0,8.15,12.49,47.59359,-54.27349
2020-12-26 05:54:01+00:00,231.0,7.45,225.0,8.85,12.49,47.59359,-54.27349
2020-12-26 06:04:01+00:00,226.0,7.08,223.0,8.12,12.49,47.59359,-54.27349
2020-12-26 06:14:01+00:00,226.0,8.72,223.0,9.56,12.49,47.59359,-54.27349
2020-12-26 06:24:01+00:00,225.0,9.48,230.0,10.48,12.49,47.59359,-54.27349
2020-12-26 06:34:01+00:00,220.0,9.08,221.0,10.1,12.49,47.59359,-54.27349
2020-12-26 06:44:01+00:00,220.0,8.08,220.0,8.93,12.49,47.59359,-54.27349
2020-12-26 06:54:01+00:00,219.0,8.68,218.0,9.77,12.49,47.59359,-54.27349
2020-12-26 07:04:01+00:00,217.0,7.32,220.0,7.93,12.49,47.59359,-54.27349
2020-12-26 07:14:01+00:00,217.0,7.75,217.0,8.21,12.49,47.59359,-54.27349
2020-12-26 07:24:01+00:00,213.0,7.17,213.0,7.91,12.49,47.59359,-54.27349
2020-12-26 07:34:01+00:00,216.0,6.28,215.0,7.02,12.49,47.59359,-54.27349
2020-12-26 07:44:01+00:00,222.0,6.09,222.0,6.8,12.49,47.59359,-54.27349
2020-12-26 07:54:01+00:00,218.0,6.17,218.0,7.07,12.49,47.59359,-54.27349
2020-12-26 08:04:01+00:00,211.0,7.24,209.0,7.91,12.49,47.59359,-54.27349
2020-12-26 08:14:01+00:00,215.0,6.08,215.0,6.79,12.49,47.59359,-54.27349
2020-12-26 08:24:01+00:00,212.0,6.34,213.0,7.29,12.49,47.59359,-54.27349
2020-12-26 08:34:01+00:00,212.0,5.34,210.0,6.12,12.49,47.59359,-54.27349
2020-12-26 08:44:01+00:00,216.0,3.4,216.0,3.81,12.49,47.59359,-54.27349
2020-12-26 08:54:01+00:00,211.0,3.79,214.0,4.59,12.49,47.59359,-54.27349
2020-12-26 09:04:01+00:00,226.0,3.84,226.0,4.27,12.49,47.59359,-54.27349
2020-12-26 09:14:01+00:00,226.0,4.51,223.0,4.89,12.49,47.59359,-54.27349
2020-12-26 09:24:01+00:00,227.0,4.61,228.0,5.33,12.49,47.59359,-54.27349
2020-12-26 09:34:01+00:00,222.0,3.49,225.0,4.28,12.49,47.59359,-54.27349
2020-12-26 09:44:01+00:00,233.0,3.96,233.0,4.85,12.49,47.59359,-54.27349
2020-12-26 09:54:01+00:00,239.0,3.84,244.0,4.22,12.49,47.59359,-54.27349
2020-12-26 10:04:01+00:00,244.0,3.33,247.0,3.79,12.49,47.59359,-54.27349
2020-12-26 10:14:01+00:00,215.0,3.24,220.0,3.85,12.49,47.59359,-54.27349
2020-12-26 10:24:01+00:00,211.0,3.27,212.0,3.93,12.49,47.59359,-54.27349
2020-12-26 10:34:01+00:00,224.0,2.7,224.0,3.26,12.49,47.59359,-54.27349
2020-12-26 10:44:01+00:00,248.0,3.02,254.0,3.75,12.49,47.59359,-54.27349
2020-12-26 10:54:01+00:00,279.0,2.4,279.0,2.6,12.49,47.59359,-54.27349
2020-12-26 11:04:01+00:00,186.0,0.37,178.0,0.59,12.49,47.59359,-54.27349
2020-12-26 11:14:01+00:00,272.0,1.03,261.0,1.73,12.41,47.59359,-54.27349
2020-12-26 11:24:01+00:00,304.0,1.08,327.0,1.97,12.41,47.59359,-54.27349
2020-12-26 11:34:01+00:00,268.0,0.93,265.0,1.23,12.41,47.59359,-54.27349
2020-12-26 11:44:01+00:00,169.0,1.73,172.0,1.95,12.41,47.59359,-54.27349
2020-12-26 11:54:01+00:00,135.0,2.79,143.0,3.82,12.41,47.59359,-54.27349
2020-12-26 12:04:01+00:00,159.0,2.0,161.0,2.33,12.41,47.59359,-54.27349
2020-12-26 12:14:01+00:00,160.0,3.84,161.0,4.51,13.84,47.59359,-54.27349
2020-12-26 12:24:01+00:00,155.0,3.0,150.0,3.27,13.84,47.59359,-54.27349
2020-12-26 12:34:01+00:00,181.0,2.41,181.0,2.91,13.84,47.59359,-54.27349
2020-12-26 12:44:01+00:00,199.0,1.74,186.0,2.41,13.84,47.59359,-54.27349
2020-12-26 12:54:01+00:00,163.0,2.71,160.0,3.03,13.84,47.59359,-54.27349
2020-12-26 13:04:01+00:00,164.0,2.63,167.0,3.04,13.84,47.59359,-54.27349
2020-12-26 13:14:01+00:00,174.0,1.66,181.0,1.81,13.84,47.59359,-54.27349
2020-12-26 13:24:01+00:00,201.0,1.83,202.0,2.13,13.84,47.59359,-54.27349
2020-12-26 13:34:01+00:00,166.0,1.52,174.0,1.65,13.84,47.59359,-54.27349
2020-12-26 13:44:01+00:00,121.0,1.44,119.0,1.65,13.84,47.59359,-54.27349
2020-12-26 13:54:01+00:00,142.0,2.19,140.0,2.62,13.84,47.59359,-54.27349
2020-12-26 14:04:01+00:00,136.0,0.96,145.0,1.3,13.84,47.59359,-54.27349
2020-12-26 14:14:01+00:00,18.0,1.04,352.0,1.78,14.32,47.59359,-54.27349
2020-12-26 14:24:01+00:00,55.0,1.81,57.0,2.59,14.32,47.59359,-54.27349
2020-12-26 14:34:01+00:00,33.0,1.42,28.0,1.69,14.32,47.59359,-54.27349
2020-12-26 14:44:01+00:00,125.0,1.84,128.0,2.07,14.32,47.59359,-54.27349
2020-12-26 14:54:01+00:00,143.0,2.75,140.0,3.8,14.32,47.59359,-54.27349
2020-12-26 15:04:01+00:00,156.0,4.27,166.0,5.71,14.32,47.59359,-54.27349
2020-12-26 15:14:01+00:00,174.0,2.61,182.0,2.85,13.76,47.59359,-54.27349
2020-12-26 15:24:01+00:00,164.0,1.74,163.0,2.03,13.76,47.59359,-54.27349
2020-12-26 15:34:01+00:00,153.0,1.89,164.0,2.3,13.76,47.59359,-54.27349
2020-12-26 15:44:01+00:00,149.0,0.93,148.0,1.15,13.76,47.59359,-54.27349
2020-12-26 15:54:01+00:00,73.0,0.42,65.0,0.79,13.76,47.59359,-54.27349
2020-12-26 16:04:01+00:00,47.0,1.33,40.0,1.71,13.76,47.59359,-54.27349
2020-12-26 16:14:01+00:00,29.0,2.55,31.0,2.75,13.21,47.59359,-54.27349
2020-12-26 16:24:01+00:00,52.0,2.29,47.0,2.8,13.21,47.59359,-54.27349
2020-12-26 16:34:01+00:00,50.0,4.82,47.0,5.62,13.21,47.59359,-54.27349
2020-12-26 16:44:01+00:00,49.0,3.7,49.0,4.24,13.21,47.59359,-54.27349
2020-12-26 16:54:01+00:00,52.0,4.97,51.0,5.56,13.21,47.59359,-54.27349
2020-12-26 17:04:01+00:00,51.0,4.83,51.0,5.61,13.21,47.59359,-54.27349
2020-12-26 17:14:01+00:00,43.0,4.28,43.0,5.05,13.13,47.59359,-54.27349
2020-12-26 17:24:01+00:00,35.0,5.8,34.0,6.27,13.13,47.59359,-54.27349
2020-12-26 17:34:01+00:00,34.0,6.02,37.0,6.84,13.13,47.59359,-54.27349
2020-12-26 17:44:01+00:00,36.0,6.51,43.0,7.31,13.13,47.59359,-54.27349
2020-12-26 17:54:01+00:00,50.0,5.31,46.0,6.42,13.13,47.59359,-54.27349
2020-12-26 18:04:01+00:00,39.0,4.82,41.0,5.45,13.13,47.59359,-54.27349
2020-12-26 18:14:01+00:00,37.0,5.11,40.0,5.66,12.97,47.59359,-54.27349
2020-12-26 18:24:01+00:00,32.0,5.4,31.0,6.34,12.97,47.59359,-54.27349
2020-12-26 18:34:01+00:00,36.0,5.78,36.0,6.55,12.97,47.59359,-54.27349
2020-12-26 18:44:01+00:00,37.0,4.21,38.0,4.62,12.97,47.59359,-54.27349
2020-12-26 18:54:01+00:00,51.0,3.42,50.0,3.82,12.97,47.59359,-54.27349
2020-12-26 19:04:01+00:00,52.0,3.75,50.0,4.12,12.97,47.59359,-54.27349
2020-12-26 19:14:01+00:00,123.0,2.26,129.0,3.1,12.81,47.59359,-54.27349
2020-12-26 19:24:01+00:00,133.0,5.03,133.0,6.15,12.81,47.59359,-54.27349
2020-12-26 19:34:01+00:00,141.0,6.23,146.0,7.07,12.81,47.59359,-54.27349
2020-12-26 19:44:01+00:00,136.0,6.22,135.0,7.46,12.81,47.59359,-54.27349
2020-12-26 19:54:01+00:00,113.0,3.7,116.0,4.41,12.81,47.59359,-54.27349
2020-12-26 20:04:01+00:00,129.0,5.49,133.0,7.22,12.81,47.59359,-54.27349
2020-12-26 20:14:01+00:00,133.0,3.42,127.0,5.25,12.65,47.59359,-54.27349
2020-12-26 20:24:01+00:00,182.0,1.67,129.0,3.63,12.65,47.59359,-54.27349
2020-12-26 20:34:01+00:00,59.0,2.57,50.0,3.33,12.65,47.59359,-54.27349
2020-12-26 20:44:01+00:00,104.0,2.96,93.0,3.97,12.65,47.59359,-54.27349
2020-12-26 20:54:01+00:00,95.0,3.42,83.0,5.05,12.65,47.59359,-54.27349
2020-12-26 21:04:01+00:00,130.0,8.15,135.0,10.87,12.65,47.59359,-54.27349
2020-12-26 21:14:01+00:00,137.0,9.84,138.0,11.67,12.57,47.59359,-54.27349
2020-12-26 21:24:01+00:00,144.0,9.79,133.0,11.64,12.57,47.59359,-54.27349
2020-12-26 21:34:01+00:00,146.0,8.21,153.0,9.33,12.57,47.59359,-54.27349
2020-12-26 21:44:01+00:00,151.0,8.22,151.0,9.11,12.57,47.59359,-54.27349
2020-12-26 21:54:01+00:00,156.0,5.5,163.0,6.54,12.57,47.59359,-54.27349
2020-12-26 22:04:01+00:00,149.0,7.06,153.0,8.69,12.57,47.59359,-54.27349
2020-12-26 22:14:01+00:00,158.0,7.34,162.0,9.11,12.65,47.59359,-54.27349
2020-12-26 22:24:01+00:00,153.0,9.54,157.0,12.44,12.65,47.59359,-54.27349
2020-12-26 22:34:01+00:00,153.0,9.38,154.0,11.01,12.65,47.59359,-54.27349
2020-12-26 22:44:01+00:00,158.0,10.96,164.0,12.92,12.65,47.59359,-54.27349
2020-12-26 22:54:01+00:00,161.0,11.34,160.0,13.66,12.65,47.59359,-54.27349
2020-12-26 23:04:01+00:00,159.0,11.76,154.0,13.84,12.65,47.59359,-54.27349
2020-12-26 23:14:01+00:00,161.0,10.56,164.0,12.7,12.57,47.59359,-54.27349
2020-12-26 23:24:01+00:00,159.0,10.58,156.0,12.21,12.57,47.59359,-54.27349
2020-12-26 23:34:01+00:00,159.0,14.18,156.0,16.3,12.57,47.59359,-54.27349
2020-12-26 23:44:01+00:00,158.0,13.21,159.0,15.93,12.57,47.59359,-54.27349
2020-12-26 23:54:01+00:00,164.0,14.26,166.0,17.09,12.57,47.59359,-54.27349
